« Back
NWS Peachtree City, Ga » Text Product » GA Regional Weather Roundup


Printer-friendly Version
Current Version              Previous Versions:   1  2  3  4  5  6  7  8  9  

Regional Weather Roundup

736
ASUS42 KFFC 011503
RWRGA
WEATHER ROUNDUP FOR GEORGIA
NATIONAL WEATHER SERVICE PEACHTREE CITY GA
1100 AM EDT FRI AUG 01 2014

NOTE: "FAIR" INDICATES FEW OR NO CLOUDS BELOW 12,000 FEET WITH NO
SIGNIFICANT WEATHER AND/OR OBSTRUCTIONS TO VISIBILITY.

* = USE WITH CAUTION. THE STATIONS MARKED WITH AN ASTERISK MAY NOT
REPORT WEATHER SUCH AS PRECIPITATION, FOG, OR THUNDER AND ARE NOT
QUALITY CONTROLLED BY NWS.

THE REMARK "TC" DENOTES TEMPERATURE READING IN DEGREES CELSIUS.

GAZ001>058-011600-
NORTH GEORGIA

CITY           SKY/WX    TMP DP  RH WIND       PRES   REMARKS
ATLANTA        CLOUDY    70  65  84 E7        30.10R
ATHENS         CLOUDY    69  65  86 NE8       30.10S
CHAMBLEE       CLOUDY    70  64  81 E7        30.10R
PEACHTREE CITY CLOUDY    70  66  87 NE5       30.10R
ROME           CLOUDY    76  65  68 NE8       30.09S
WEST ATLANTA   CLOUDY    73  67  81 NE7       30.09S
GAINESVILLE    MOSUNNY   70  64  81 E10       30.13S
CARTERSVILLE   PTSUNNY   74  65  73 VRB3      30.10R


CITY           SKY/WX    TMP DP  RH WIND       PRES   REMARKS
DALTON*        MOSUNNY   73  64  73 CALM      30.10S
LAWRENCEVILLE* CLOUDY    70  61  73 NE10G18   30.11
MARIETTA       CLOUDY    72  67  84 NE2       30.10S
KENNESAW*      PTSUNNY   72  64  78 SE9       30.11S
$$

GAZ059>098-102>109-011600-
CENTRAL GEORGIA

CITY           SKY/WX    TMP DP  RH WIND       PRES   REMARKS
AUGUSTA-BUSH   CLOUDY    75  68  78 NE7       30.06R
AUGUSTA-DANIEL CLOUDY    76  68  76 NE7       30.08R
COLUMBUS       CLOUDY    74  68  81 E7        30.05R
MACON          CLOUDY    71  71 100 NE9       30.05R
ROBINS AFB     LGT RAIN  72  70  93 NE6       30.04S


CITY           SKY/WX    TMP DP  RH WIND       PRES   REMARKS
LAGRANGE*      CLOUDY    74  72  93 E5        30.08R
SYLVANIA*      CLOUDY    77  75  96 NE5       30.05R FOG
MILLEDGEVILLE* LGT RAIN  59  59 100 N3        30.07S
$$

GAZ099>101-110>166-011600-
SOUTH GEORGIA

CITY           SKY/WX    TMP DP  RH WIND       PRES   REMARKS
SAVANNAH       CLOUDY    82  75  79 N6        30.02R
VALDOSTA       PTSUNNY   87  69  54 SE3       30.00R HX  91
ALMA           PTSUNNY   85  74  69 NE5       30.00S HX  92
ST SIMONS      PTSUNNY   85  75  72 W3        29.99S HX  93
FT STEWART     CLOUDY    81  75  83 N5        30.00R FOG
ALBANY         CLOUDY    79  71  76 E7        30.04R
HUNTER AFB     PTSUNNY   85  77  77 N7        29.99S HX  94
MOODY AFB      PTSUNNY   83  73  72 VRB5      30.00R
BRUNSWICK      CLOUDY    88  73  62 W3        30.00S HX  96


CITY           SKY/WX    TMP DP  RH WIND       PRES   REMARKS
BAINBRIDGE*    MOSUNNY   81  73  78 CALM      30.02R
MOULTRIE*      SUNNY     81  73  78 CALM      30.02R
VIDALIA*         N/A     79  75  89 NE6       30.03S
WAYCROSS*      PTSUNNY   90  79  70 E5        30.00S HX 105
DOUGLAS*       PTSUNNY   86  73  66 NE3       30.01S HX  93
$$



USA.gov is the U.S. government's official web portal to all federal, state and local government web resources and services.